Track AEROCUBE 2 now! 10-day predictions AEROCUBE 2 is classified as:
1 31133U 07012R 22142.82035784 .00001412 00000-0 29424-3 0 9991 2 31133 98.2498 90.1886 0078586 282.6835 76.5587 14.59696449803043